User: anonymous   Login
Location: Caltech
(34.1382°N, 118.1253°W)
Time: 01:47:05
(UTC-07:00)
Language:

COSMOS 2428 - Orbit

View from above orbital plane
View from above orbital plane
View from above satellite
View from above satellite

Ground track
Ground track

The orbit data is extracted from the following two-line orbital elements,

1 31792U 07029A   15143.03639025  .00000137  00000-0  10000-3 0  9997
2 31792 070.9814 197.8306 0008908 320.3702 113.2709 14.12545664407304
Epoch (UTC): 23 May 2015 00:52:24
Eccentricity: 0.0008908
inclination: 70.9814°
perigee height: 844 km
apogee height: 857 km
right ascension of ascending node: 197.8306°
argument of perigee: 320.3702°
revolutions per day: 14.12545664
mean anomaly at epoch: 113.2709°
orbit number at epoch: 40730

The dashed part of the orbit path shows where the satellite is in the earth's shadow,  

DLR